This demonstration page uses our WeatherBlox Daily Observations layout. Learn more.

Left ArrowRight Arrow

38.80484, -77.04692

Hourly Observations for February 24, 2021

Temp ( °F °C ) Dew Point ( °F °C ) Humidity (%) Winds ( mph kmh ) Pressure ( in mb ) Visibility ( mi km ) Precip ( " mm )
12:52 am 00:52 Clear 40 4.4 31 -0.6 70 70 Calm 30.05 1018 10 16.0934 0 0
1:52 am 01:52 Clear 36 2.2 31 -0.6 82 82 ENE 5 7 30.06 1018 10 16.0934 0 0
2:52 am 02:52 Cloudy 37 2.8 32 0 82 82 S 3 6 30.06 1018 10 16.0934 0 0
3:52 am 03:52 Mostly Cloudy 35 1.7 30 -1.1 82 82 SSW 3 6 30.07 1018 10 16.0934 0 0
4:52 am 04:52 Mostly Cloudy 36 2.2 31 -0.6 82 82 SW 3 6 30.09 1019 10 16.0934 0 0
5:52 am 05:52 Mostly Cloudy 34 1.1 29 -1.7 82 82 SSW 5 7 30.11 1020 10 16.0934 0 0
6:52 am 06:52 Mostly Cloudy 33 0.6 29 -1.7 85 85 S 5 7 30.11 1020 10 16.0934 0 0
7:52 am 07:52 Cloudy 38 3.3 32 0 79 79 WSW 3 6 30.11 1020 10 16.0934 0 0
8:52 am 08:52 Cloudy 41 5 33 0.6 73 73 Calm 30.11 1020 10 16.0934 0 0
9:52 am 09:52 Mostly Cloudy 47 8.3 33 0.6 59 59 S 6 9 30.11 1020 10 16.0934 0 0
10:52 am 10:52 Partly Cloudy 54 12.2 33 0.6 45 45 S 12 19 30.09 1019 10 16.0934 0 0
11:52 am 11:52 Mostly Sunny 55 12.8 31 -0.6 40 40 S 15 24 30.08 1019 10 16.0934 0 0
12:52 pm 12:52 Mostly Sunny 56 13.3 31 -0.6 39 39 S 17 28 30.02 1017 10 16.0934 0 0
1:52 pm 13:52 Sunny 57 13.9 33 0.6 41 41 S 16 26 29.98 1015 10 16.0934 0 0
2:52 pm 14:52 Sunny 59 15 32 0 36 36 S 13 20 29.94 1014 10 16.0934 0 0
3:52 pm 15:52 Sunny 58 14.4 32 0 38 38 S 17 28 29.89 1012 10 16.0934 0 0
4:52 pm 16:52 Mostly Sunny 58 14.4 33 0.6 39 39 S 14 22 29.85 1011 10 16.0934 0 0
5:52 pm 17:52 Partly Cloudy 54 12.2 33 0.6 45 45 S 13 20 29.84 1011 10 16.0934 0 0
6:52 pm 18:52 Partly Cloudy 53 11.7 33 0.6 47 47 S 13 20 29.84 1011 10 16.0934 0 0
7:52 pm 19:52 Partly Cloudy 51 10.6 34 1.1 52 52 SSW 9 15 29.84 1011 10 16.0934 0 0
8:52 pm 20:52 Partly Cloudy 53 11.7 32 0 45 45 SSW 9 15 29.84 1011 10 16.0934 0 0
9:52 pm 21:52 Partly Cloudy 50 10 33 0.6 52 52 SSW 7 11 29.83 1010 10 16.0934 0 0
10:52 pm 22:52 Partly Cloudy 56 13.3 31 -0.6 39 39 WSW 9 15 29.84 1011 10 16.0934 0 0
11:52 pm 23:52 Partly Cloudy 58 14.4 31 -0.6 36 36 W 6 9 29.87 1012 10 16.0934 0 0

Powered by AerisWeather